Theta_e
302 302 302 302 302 302 302 302 302 302 303 303 303 302 303 304 304 303 302 303 304 306 309 310 309 309 310 310 310 311 311 312 312 312 311 311 312 312 313 313 313 313 313 314 313 314 317 317 317 317 316 315 313 312 312 313 315 320 324 324 324 325 325 322 320 321 323 324 325 325 325 325 324 323 324 322 321 321 320 322 326 323 319 322 324 317 322
302 302 302 302 302 302 303 303 303 302 303 303 303 303 303 303 303 303 303 303 305 306 307 307 306 306 307 307 308 309 309 309 310 309 310 311 311 311 312 312 312 312 312 313 313 313 316 316 315 314 313 314 313 312 312 313 313 318 323 324 322 324 327 325 321 320 320 321 323 322 323 323 323 325 325 323 323 323 322 327 327 321 320 323 321 316 324
302 302 302 303 303 303 303 303 303 303 302 303 303 303 303 303 303 304 303 303 305 306 306 306 305 306 307 307 307 308 308 308 309 308 309 310 310 310 310 310 311 312 312 312 312 313 314 315 314 312 311 313 313 311 311 312 313 318 322 321 319 323 328 326 322 321 319 319 321 323 326 324 322 325 325 322 325 322 320 322 320 320 324 323 319 321 333
302 303 303 303 303 303 303 303 303 303 303 303 303 302 303 303 303 303 303 304 304 305 306 306 305 306 306 306 307 307 307 308 308 308 309 309 308 308 309 310 310 311 311 311 312 312 312 312 312 311 310 312 312 311 311 311 313 318 320 318 317 323 328 327 324 326 325 323 324 328 331 325 319 323 324 323 325 323 322 320 317 324 330 321 324 336 336
303 303 304 304 304 303 303 303 303 303 303 302 303 303 303 303 303 303 304 304 304 305 305 305 305 306 306 306 306 306 306 307 307 307 308 307 307 307 308 309 309 310 311 311 311 311 311 310 311 311 310 311 311 310 311 312 314 317 316 315 317 320 323 324 325 326 325 324 324 323 325 323 320 322 323 322 325 324 322 319 320 331 327 316 331 350 334
303 304 304 304 304 304 304 303 303 303 302 303 303 303 303 303 303 303 304 304 304 304 305 305 305 305 305 305 306 306 306 307 307 306 307 306 306 307 308 308 307 308 310 311 311 312 311 311 311 310 310 311 310 310 311 312 314 313 312 313 316 318 320 322 322 321 320 320 322 322 323 324 322 323 323 322 325 323 321 321 325 332 323 316 335 348 332
303 303 303 303 304 304 304 303 303 303 303 303 303 302 303 303 303 304 304 304 304 304 304 305 305 305 305 306 306 306 306 306 306 306 306 306 306 306 307 307 306 307 308 312 314 312 311 311 312 311 311 311 310 310 311 312 312 311 311 313 314 318 323 323 318 318 319 319 321 322 323 323 322 323 324 323 324 323 323 324 325 327 324 323 337 343 333
303 303 303 303 304 304 304 303 303 303 303 303 303 303 303 303 303 304 304 303 304 304 304 305 305 304 305 306 305 305 306 306 306 306 305 306 306 306 306 307 307 306 307 310 312 311 311 312 311 310 311 311 311 312 312 312 311 311 311 312 313 317 322 320 316 318 320 319 321 322 322 323 323 322 323 323 324 323 323 324 325 326 324 325 335 339 335
303 303 303 303 303 303 303 303 303 303 303 303 303 303 303 303 303 303 303 303 304 304 304 304 304 304 305 305 305 305 305 305 305 305 305 306 306 306 306 307 307 307 307 308 309 309 310 310 310 310 311 311 311 312 312 311 311 311 311 312 314 316 319 318 317 319 320 319 320 320 320 324 324 323 324 323 322 323 323 323 325 325 324 326 328 328 330
303 303 303 303 303 303 303 303 304 304 303 303 303 303 303 303 303 303 303 303 304 304 304 304 304 304 304 304 305 305 305 305 305 306 306 306 306 306 307 308 308 308 307 307 307 308 309 309 309 309 310 310 310 311 311 311 311 311 311 313 314 315 317 317 317 320 320 319 318 319 322 326 324 323 324 323 323 324 323 324 327 326 325 325 323 323 328
303 303 303 303 303 303 304 304 303 303 303 303 303 303 303 303 303 303 303 303 304 304 304 304 304 304 304 304 304 304 304 305 305 306 307 306 306 306 307 307 308 309 308 308 308 309 309 309 310 310 310 310 310 310 311 311 311 311 312 313 315 317 318 317 317 320 320 317 317 321 327 327 325 325 327 325 325 326 322 323 325 324 325 326 323 325 328
303 303 303 303 303 303 303 304 303 303 303 303 303 303 303 303 303 303 303 303 304 304 304 304 303 303 304 304 304 304 304 305 305 306 306 306 306 306 306 306 308 309 308 307 308 309 309 309 309 310 310 310 310 310 310 310 311 312 312 312 314 316 317 317 317 319 319 318 320 328 334 333 327 327 329 327 324 324 329 338 342 341 340 336 330 329 330
303 303 303 303 303 303 303 303 303 303 303 303 303 303 303 303 303 303 303 303 303 303 303 304 304 304 304 304 304 304 304 305 305 305 305 305 306 306 306 306 307 307 307 307 308 309 311 312 312 312 311 311 310 311 310 310 311 311 312 312 313 314 316 317 318 319 319 321 325 330 334 332 327 327 332 336 337 332 331 338 347 352 356 351 340 338 346
303 303 303 303 303 303 303 303 303 303 303 303 303 303 303 303 303 303 303 303 303 304 303 303 303 304 304 304 304 305 304 304 304 304 305 306 306 306 306 306 307 306 306 307 309 310 313 314 314 313 312 311 312 313 312 312 311 311 312 312 312 313 315 317 318 319 320 322 326 329 329 328 332 336 336 336 340 338 332 332 340 352 355 353 348 351 360
303 303 303 303 303 303 303 303 303 303 303 303 303 303 303 303 303 303 303 303 303 304 303 303 303 304 304 304 304 304 304 304 304 304 305 305 306 306 306 306 306 306 307 309 311 313 314 314 313 312 312 312 313 314 314 313 313 312 312 312 313 313 315 317 318 321 323 324 328 331 331 332 336 337 333 332 334 335 333 333 340 352 353 349 351 353 353
302 303 303 303 303 303 303 303 303 303 303 303 303 303 303 303 303 302 302 302 303 303 303 303 303 304 304 304 304 304 304 304 304 305 305 305 305 306 306 306 306 306 308 310 312 313 314 313 312 312 313 313 313 313 313 314 316 314 312 313 314 313 315 317 318 321 326 329 332 333 332 336 339 334 332 332 332 334 335 332 336 351 353 348 352 356 354
302 302 303 303 303 303 303 303 303 303 303 303 303 303 303 303 303 303 303 303 303 303 303 303 303 303 303 303 303 303 304 305 305 305 306 306 306 305 306 306 306 306 308 310 311 311 312 312 312 312 312 312 313 314 314 316 320 319 315 313 314 316 322 326 325 326 329 332 333 333 333 338 338 332 331 333 333 334 332 328 336 352 351 345 350 355 355
303 303 303 303 303 303 303 303 303 303 303 303 303 303 303 303 303 303 303 303 303 303 303 303 303 303 303 303 304 304 304 304 304 305 305 305 305 306 306 307 307 307 308 310 311 310 310 311 312 312 312 312 312 314 315 316 319 322 321 319 320 325 333 335 334 334 333 332 333 333 334 337 335 331 332 334 334 332 326 329 341 350 347 344 346 347 347
303 303 303 303 303 303 303 303 303 303 303 303 303 303 303 303 303 303 303 303 303 303 303 303 303 303 303 303 303 304 304 304 304 304 305 305 306 306 306 306 307 307 308 309 310 310 311 311 312 312 313 313 313 315 316 317 318 321 323 324 327 331 334 336 337 335 333 334 335 333 333 334 332 331 333 335 336 334 332 337 343 344 343 346 347 346 346
303 303 303 303 303 303 302 303 303 303 303 303 303 303 303 303 303 303 303 303 303 303 303 303 303 303 303 303 303 303 304 304 304 304 305 305 305 306 306 307 307 308 309 309 309 310 311 311 311 312 312 313 313 314 314 316 317 319 320 322 326 329 331 334 337 334 332 333 334 332 334 335 333 332 335 337 338 338 336 339 343 344 344 345 345 345 346
303 303 303 303 303 303 303 303 303 302 303 303 303 303 303 303 303 302 302 303 303 303 303 303 303 303 303 303 303 303 304 304 304 304 304 305 305 305 306 307 307 307 308 309 309 309 310 310 310 311 311 312 312 312 313 314 316 317 319 321 323 326 329 333 336 336 334 334 333 334 336 334 332 333 336 335 333 332 333 337 342 342 342 342 342 343 344
303 303 303 303 303 303 303 303 303 303 303 303 303 303 303 302 302 302 302 302 303 303 303 303 303 303 303 303 303 303 303 304 303 304 304 304 304 305 305 305 305 305 307 308 309 309 309 309 309 309 310 310 311 311 312 313 314 317 320 322 322 325 330 335 337 336 334 334 335 336 335 332 330 332 334 332 331 331 331 333 335 335 337 339 340 340 342
304 304 304 304 303 303 303 303 303 303 303 303 303 303 303 302 302 302 302 302 302 302 302 302 303 303 303 303 304 304 304 304 304 304 304 304 304 304 304 304 304 305 305 306 307 308 310 310 309 309 308 310 310 311 311 313 314 317 319 321 322 323 327 334 338 336 334 334 334 334 332 330 329 330 330 330 331 332 331 330 330 330 333 336 337 338 339
304 304 304 304 304 304 303 303 303 303 303 303 303 303 303 302 302 302 302 302 302 302 303 303 303 303 303 303 304 304 304 304 305 305 305 304 304 304 304 304 304 305 306 306 306 308 309 309 309 308 308 309 310 310 310 311 313 316 317 319 321 321 324 330 335 334 333 334 334 333 332 330 328 328 329 329 330 331 331 331 330 330 331 332 334 336 337
304 304 304 305 305 305 304 303 303 303 303 303 303 303 303 303 302 302 302 302 302 302 303 303 303 303 303 303 304 304 304 305 305 305 305 305 305 305 305 305 305 305 306 306 307 308 308 308 309 308 309 309 309 309 310 311 312 313 313 315 319 321 323 327 332 332 332 333 333 331 330 328 327 328 328 329 329 330 330 332 332 332 331 331 331 333 334
304 305 305 305 305 305 305 304 303 303 303 303 303 303 303 302 302 302 302 302 302 302 302 303 303 303 304 304 304 304 305 304 305 305 305 305 305 305 306 306 306 306 306 306 307 308 308 309 309 309 309 309 308 309 310 310 310 310 310 311 314 317 320 325 331 333 333 333 331 329 330 329 328 328 328 328 328 329 329 330 332 331 330 331 331 331 333
305 305 306 305 305 305 305 304 303 303 303 303 303 303 303 303 302 302 302 302 302 302 303 303 304 304 304 304 304 304 305 305 305 305 305 305 305 305 305 306 306 306 306 307 308 308 308 309 309 309 309 309 308 308 308 308 308 309 310 311 313 316 320 326 331 332 333 333 330 330 332 332 328 327 327 327 327 327 328 329 330 329 329 330 330 331 332
305 306 306 306 306 306 305 304 303 303 303 303 303 302 303 303 303 302 302 301 301 302 303 303 304 304 305 305 305 305 305 305 306 306 306 306 306 306 306 306 306 306 306 306 307 308 309 309 309 309 310 309 309 309 310 310 309 311 313 313 315 318 321 324 328 332 333 331 328 329 332 331 328 327 327 327 326 328 328 328 329 329 328 329 330 331 331
306 307 307 307 306 306 305 304 303 303 303 303 303 303 303 304 303 302 302 302 301 302 303 303 304 305 305 305 305 305 306 307 307 307 307 307 307 307 307 306 306 306 306 306 307 307 308 309 309 309 309 309 309 310 311 311 312 314 316 316 317 318 319 320 324 329 330 327 326 328 330 329 327 328 328 326 325 327 327 326 327 328 328 328 329 330 330
307 308 308 307 306 305 305 304 303 303 303 304 304 303 304 305 305 304 304 303 303 303 304 304 305 305 304 304 305 306 307 307 307 308 308 309 309 309 309 308 307 306 306 307 307 307 308 308 308 308 309 309 310 310 311 312 313 314 317 318 318 318 319 319 321 325 327 327 326 326 327 327 328 329 328 326 324 325 326 326 326 326 326 327 328 329 329
309 309 308 308 307 306 305 305 305 304 303 304 304 304 304 304 305 305 305 304 304 304 304 304 304 304 304 304 305 306 307 307 307 307 308 309 309 309 310 309 308 307 307 307 306 307 308 309 309 309 310 311 312 311 311 312 313 314 316 317 316 317 320 321 321 323 326 326 325 326 327 328 328 328 328 326 324 323 325 326 326 325 325 326 326 326 327
310 310 309 309 309 308 308 308 307 306 305 305 305 306 306 306 306 305 305 304 304 304 304 304 304 304 304 305 305 306 306 307 308 309 309 310 311 311 310 310 309 308 307 307 307 308 309 309 309 310 311 312 312 312 312 313 314 315 315 315 315 317 319 321 322 322 323 324 325 327 329 328 327 328 328 327 326 324 324 325 326 326 327 327 326 325 325
310 311 311 310 310 310 309 309 309 309 308 307 307 308 308 308 307 306 305 304 304 304 303 303 303 304 305 305 306 307 308 309 310 310 310 311 311 311 311 311 310 310 309 309 309 310 310 310 311 312 312 312 313 314 314 314 315 315 315 316 317 319 320 321 321 323 324 324 325 328 328 327 327 328 327 326 326 325 324 325 326 326 327 328 327 327 327
310 312 312 312 311 311 310 310 310 310 310 309 309 309 310 309 308 307 306 305 304 304 303 302 303 304 305 306 307 308 310 310 310 310 311 312 311 311 312 311 310 310 310 309 310 311 312 313 313 314 314 314 314 314 315 316 316 316 317 318 319 320 321 321 322 324 325 325 326 328 328 326 326 326 326 326 326 325 324 325 325 325 326 327 328 328 328
310 311 312 312 312 311 310 310 310 310 310 310 310 310 310 310 309 308 307 306 304 303 303 302 303 304 305 306 308 309 309 309 309 310 311 312 312 312 312 312 311 311 312 311 311 313 315 314 313 314 315 315 315 316 316 317 317 317 317 318 319 321 321 322 323 325 327 327 328 328 326 325 325 325 325 325 324 324 324 324 325 325 326 328 328 328 328
311 311 312 312 312 312 310 310 310 310 311 311 310 310 310 311 310 309 308 307 305 304 303 303 303 304 306 307 308 308 309 309 310 310 311 312 313 312 312 312 314 313 313 312 313 315 315 313 312 314 316 315 316 317 317 317 317 316 316 317 319 321 322 322 322 323 326 327 327 326 325 324 324 324 323 323 323 323 324 324 325 326 327 327 327 328 329
311 311 311 312 312 312 311 311 311 311 311 311 310 310 310 311 310 309 308 307 306 305 304 303 304 305 305 306 307 307 308 310 311 312 312 313 314 313 312 313 315 314 312 313 315 316 314 313 313 315 316 315 315 316 315 314 314 315 316 317 320 322 322 322 322 323 324 325 324 324 323 323 323 322 323 323 323 324 324 325 326 326 326 326 327 328 329
311 311 311 311 312 312 312 312 312 312 311 311 311 310 310 310 309 308 308 307 307 306 304 303 304 304 304 304 306 307 309 311 312 313 313 313 314 313 313 314 315 314 312 313 314 314 313 313 314 314 315 314 314 313 313 313 315 317 318 320 322 322 323 323 323 323 323 324 324 324 323 323 323 323 323 323 324 325 325 326 326 326 327 327 327 328 329
311 311 311 311 312 312 312 312 312 311 311 311 311 311 310 310 310 309 309 308 308 307 305 304 304 304 304 304 306 307 309 310 311 312 312 313 313 313 312 313 313 312 312 313 313 313 314 314 313 313 314 315 314 314 314 315 318 320 321 321 322 323 323 323 324 324 324 324 324 324 323 323 323 323 322 323 325 326 326 326 327 327 327 327 327 327 328
311 311 311 312 312 312 311 312 311 311 311 311 311 311 310 310 311 311 311 310 309 308 307 306 306 306 306 306 307 309 309 309 310 311 312 312 312 312 311 311 311 311 312 313 312 312 313 313 311 312 315 316 316 316 317 318 320 321 321 322 322 323 324 324 324 325 325 324 323 323 322 322 322 322 323 324 326 327 327 327 327 327 327 327 327 328 329
311 311 312 312 312 311 312 312 312 311 311 311 312 312 311 311 311 311 311 312 311 310 309 309 310 310 310 309 309 310 311 311 311 311 310 310 310 311 310 310 309 310 312 313 311 311 311 312 311 313 315 316 317 318 320 321 321 321 322 322 322 323 323 324 324 325 325 326 325 324 324 323 323 324 326 326 327 327 327 327 327 327 327 327 328 328 329
311 311 311 312 311 312 312 312 311 311 311 311 311 312 312 312 312 313 312 313 313 314 313 312 313 314 314 313 312 312 312 312 312 311 310 309 310 311 309 308 309 311 313 312 310 310 312 313 314 314 316 317 318 320 321 321 320 320 322 322 322 322 323 323 323 323 325 326 326 325 325 326 326 326 327 327 327 327 327 327 327 327 327 327 328 329 329
310 310 311 312 312 312 313 313 312 312 313 312 312 312 313 313 314 315 315 315 315 315 315 315 316 317 317 316 315 314 314 314 314 312 311 311 311 310 309 309 311 314 314 313 311 312 313 314 315 316 317 318 320 320 321 320 320 320 321 321 321 322 322 322 322 322 324 325 325 325 326 326 326 326 326 326 326 327 327 327 328 328 328 328 328 329 329
311 311 312 312 312 311 313 314 313 313 314 314 313 313 315 316 316 317 317 317 316 316 316 317 318 319 319 318 317 316 316 315 314 314 314 313 312 312 312 313 314 315 314 313 313 313 313 315 317 318 318 319 320 319 319 319 319 320 321 321 320 320 321 322 322 322 323 323 324 324 325 325 325 326 326 325 326 326 327 327 327 328 328 328 328 328 328
311 311 312 313 312 312 314 315 314 314 315 315 314 314 315 316 317 317 317 317 316 316 317 318 318 319 319 318 318 318 318 317 317 318 318 317 315 315 316 317 315 313 313 314 314 315 316 319 320 319 319 320 320 319 319 319 319 320 321 321 321 321 322 322 322 322 322 322 323 324 324 324 324 325 325 325 325 326 326 326 327 327 327 327 326 326 326
312 311 311 312 313 313 314 315 315 314 314 314 314 314 315 315 316 316 316 316 316 316 317 318 318 319 318 318 319 318 318 318 319 319 319 319 317 317 317 317 315 314 315 317 318 318 319 320 320 319 319 320 321 320 320 320 320 320 320 320 321 321 321 321 321 322 322 321 322 322 323 323 323 323 323 324 324 324 325 325 325 326 325 325 325 325 325
311 311 310 312 313 314 313 314 314 313 312 312 313 314 315 315 315 316 316 316 316 317 317 317 318 318 318 317 318 318 317 317 318 317 317 319 319 317 315 315 314 314 316 320 321 320 320 319 319 320 320 320 320 320 320 320 320 319 319 320 320 320 319 319 319 320 320 320 321 321 321 321 321 321 322 322 322 323 323 324 324 324 324 324 324 324 324
311 311 311 311 313 314 314 314 314 313 313 314 314 315 315 316 315 315 316 316 316 316 317 317 318 319 318 317 318 318 317 317 318 317 316 317 316 315 315 316 316 316 318 321 321 321 320 319 319 320 320 320 320 320 320 319 319 318 318 318 318 318 317 317 317 317 318 318 319 319 319 319 319 320 320 321 321 322 322 322 322 322 322 322 321 322 322
312 313 313 312 313 314 315 315 314 314 314 314 314 314 315 315 315 315 316 316 316 316 317 316 317 319 318 317 318 318 318 317 318 317 315 315 314 314 315 317 318 319 320 321 320 319 319 319 319 319 319 319 319 318 317 316 316 315 315 316 316 316 316 316 316 316 317 317 317 317 317 317 318 318 319 319 319 320 320 321 321 320 319 318 319 320 321
313 314 313 313 314 315 315 314 315 315 314 314 314 314 314 314 315 315 315 316 315 316 316 316 316 317 317 316 318 319 318 318 318 317 317 317 316 314 315 318 320 320 319 319 319 318 319 318 318 318 318 317 316 315 314 313 313 313 313 314 314 314 315 315 316 316 316 316 316 316 316 316 316 316 316 317 317 317 318 319 319 319 318 317 317 318 318
315 315 315 315 315 315 315 315 315 315 314 314 314 314 314 314 314 314 315 315 315 316 316 316 316 317 317 316 317 318 317 317 317 318 317 318 317 316 316 317 318 318 318 318 318 317 317 318 318 318 317 315 313 312 312 311 312 311 312 312 313 313 314 314 314 315 315 315 315 315 315 315 315 315 315 316 316 316 316 316 316 316 316 316 316 316 316
314 315 315 315 315 315 315 315 315 315 315 314 314 314 314 314 314 314 315 315 315 315 315 315 316 317 317 316 316 317 317 317 317 317 317 316 316 316 316 316 315 315 316 316 315 315 315 316 316 315 314 313 311 309 309 309 309 310 310 311 311 312 312 312 313 313 314 314 314 313 313 313 315 315 315 315 315 315 315 315 315 315 315 316 316 316 316
Wind_Speed
28 27 27 27 27 27 27 27 28 27 26 26 25 24 20 12 16 26 27 24 24 16 3 3 5 2 8 12 9 8 7 6 6 5 6 5 2 3 2 1 3 2 2 2 4 4 2 1 3 3 4 6 6 14 25 22 14 8 4 5 9 9 3 2 5 6 5 6 7 5 7 11 10 10 9 8 7 7 8 6 5 5 4 2 2 7 7
27 27 27 27 26 26 26 27 27 25 24 23 22 20 16 17 24 24 22 23 18 9 3 5 6 6 12 13 9 8 7 7 8 6 5 4 2 2 2 2 4 1 1 2 2 4 2 2 5 5 3 3 9 18 25 19 9 6 6 7 8 6 3 1 2 5 6 5 5 5 4 5 5 6 10 11 12 11 7 2 3 4 7 7 6 7 6
27 26 27 26 26 26 26 26 25 24 23 20 19 17 14 17 16 13 20 23 13 8 6 6 5 8 10 10 9 9 8 8 10 7 6 5 4 3 3 4 5 2 3 3 2 2 1 1 4 5 4 3 6 16 21 15 7 6 10 13 8 2 2 2 2 6 7 5 5 6 5 4 3 5 10 14 17 17 10 4 4 6 6 8 8 7 6
26 26 26 26 26 26 25 24 23 22 21 18 17 14 11 11 6 5 16 19 10 8 10 9 7 7 8 8 7 8 9 8 10 8 5 8 10 5 3 4 5 2 5 4 1 2 3 3 3 3 5 3 4 13 17 11 9 10 14 18 9 2 1 4 4 5 6 4 6 8 5 5 10 11 11 13 18 19 14 8 8 7 4 6 8 5 3
26 26 26 25 25 24 23 23 21 20 19 17 16 13 8 5 3 3 9 10 8 9 9 10 9 8 9 6 5 8 10 8 9 8 7 11 12 5 2 7 8 5 6 4 1 3 3 2 3 3 4 3 5 11 11 8 11 14 14 14 7 1 2 5 5 7 7 7 12 14 13 11 13 15 14 14 15 17 17 15 9 8 7 9 7 7 6
27 27 26 25 24 23 22 21 20 19 18 15 13 10 6 3 4 7 7 4 4 6 8 11 11 10 10 6 5 9 10 7 8 8 9 12 11 6 3 9 10 7 6 3 1 3 3 2 0 3 4 4 6 7 6 4 13 16 10 9 5 0 3 4 8 13 13 12 14 14 13 13 12 13 17 17 15 16 20 18 11 11 11 12 8 10 9
27 27 26 24 22 21 20 20 19 18 16 15 12 8 5 5 6 9 7 3 5 9 13 13 10 9 9 5 5 8 10 10 9 7 7 8 8 8 4 6 9 8 5 2 0 3 3 2 1 2 3 5 4 4 3 2 12 14 8 5 4 0 2 5 10 15 15 14 13 12 11 11 12 13 16 18 18 19 20 18 14 14 17 13 9 12 12
27 26 25 23 20 18 18 18 18 17 15 14 12 8 7 6 6 8 7 5 9 12 12 9 7 7 6 4 4 5 7 9 10 8 7 5 4 7 5 7 9 7 5 2 2 3 4 5 5 2 2 4 2 1 2 2 7 9 5 4 3 1 2 7 9 10 12 12 11 12 13 12 11 13 14 17 20 21 21 19 14 12 14 12 8 10 9
26 25 23 22 20 17 17 17 17 17 15 14 12 10 9 9 10 10 8 5 6 7 6 5 5 4 3 3 5 5 6 8 9 10 8 4 2 6 6 7 7 6 6 4 3 5 6 8 9 7 6 5 3 2 2 4 6 5 3 4 1 1 2 5 6 6 8 8 11 16 19 15 11 13 16 17 18 18 17 15 12 12 12 11 9 8 7
24 23 22 21 20 18 17 17 17 16 14 13 12 11 11 11 12 11 7 4 4 4 4 4 4 3 3 6 7 7 8 10 9 7 6 4 7 10 7 6 6 6 8 7 6 10 13 14 15 14 13 13 11 10 10 9 6 4 3 4 2 2 1 2 4 4 6 9 12 15 15 12 10 13 16 16 14 13 12 11 11 13 13 12 12 12 9
23 23 22 21 19 19 18 17 16 15 14 12 12 12 11 10 11 11 6 4 4 3 2 2 3 4 8 10 10 8 10 11 7 3 2 6 12 15 11 8 5 4 6 11 16 20 21 20 19 18 17 16 15 16 16 14 13 11 7 4 3 4 3 1 1 2 6 12 13 11 7 6 9 8 8 13 14 12 11 11 11 12 11 8 9 11 11
22 22 21 21 20 19 18 17 15 14 13 11 11 12 11 9 10 10 6 3 4 3 1 4 5 6 11 14 12 9 9 9 8 7 7 8 12 14 13 8 4 3 10 19 24 24 21 17 15 14 14 14 15 16 16 15 16 17 15 10 6 3 4 2 2 2 5 8 8 6 4 7 8 9 3 9 13 12 10 9 9 9 10 6 5 7 11
22 21 21 20 20 20 18 17 15 14 13 11 11 11 10 9 9 10 7 4 4 4 4 7 10 11 13 14 11 11 11 12 14 15 13 10 9 12 14 9 5 9 18 24 23 17 11 8 7 7 8 8 8 11 16 18 18 19 19 16 11 6 4 3 2 3 4 4 3 4 6 9 14 11 7 7 4 4 7 7 6 6 6 6 6 8 9
22 21 20 20 20 20 19 17 16 14 13 12 12 11 10 9 9 10 8 4 4 6 7 7 7 8 9 10 8 9 11 13 15 15 12 10 9 12 14 12 11 16 20 18 14 8 3 2 3 4 5 4 3 5 11 16 19 21 22 19 15 11 5 2 2 3 3 3 4 5 8 12 11 5 4 7 6 4 5 7 7 5 4 6 8 8 7
21 20 20 20 19 19 19 17 15 14 13 12 12 12 10 10 9 10 10 7 5 7 8 7 6 6 6 7 7 6 7 8 9 10 12 12 11 11 12 14 16 17 14 9 5 1 1 1 1 2 3 2 2 3 3 5 10 17 22 20 17 15 10 6 4 4 3 3 5 4 5 6 4 3 8 8 8 10 8 4 5 6 3 3 6 7 8
21 20 19 19 19 19 18 17 15 14 13 11 12 12 10 9 9 10 11 10 6 4 4 6 8 10 9 9 10 8 6 4 3 6 7 7 7 11 15 16 15 14 8 3 1 1 0 1 1 3 3 1 1 3 4 3 3 9 17 20 18 16 12 8 5 5 4 3 3 3 3 5 4 8 14 17 19 16 6 1 5 6 4 2 4 5 4
21 20 19 19 18 17 17 17 15 14 13 11 11 11 9 7 8 9 11 12 10 10 11 14 18 16 9 6 8 7 6 5 5 5 5 4 7 14 18 16 14 13 7 2 1 1 1 2 2 3 3 1 1 3 4 4 5 3 10 15 16 13 8 7 6 7 5 3 3 3 4 4 6 11 16 24 28 16 3 5 7 5 5 5 4 5 3
21 20 20 19 18 17 16 16 15 14 14 12 12 11 9 7 7 7 10 13 11 9 10 11 12 12 8 5 8 8 7 7 7 5 6 7 7 9 12 12 11 10 6 0 1 1 2 3 3 3 3 2 2 3 4 4 5 5 3 6 10 9 5 5 5 6 5 4 2 3 4 4 7 14 21 29 26 8 8 7 7 2 3 3 5 7 6
22 21 20 19 19 18 17 16 15 15 14 13 13 13 10 8 8 8 10 15 13 10 11 11 13 18 19 17 17 17 15 13 10 5 4 4 4 7 13 12 6 4 3 1 0 1 2 2 2 2 3 2 2 2 3 4 5 5 4 3 6 7 5 4 5 4 2 3 2 3 5 2 10 20 24 22 11 3 5 8 10 4 3 5 9 11 13
24 22 21 20 19 18 17 16 15 15 14 13 14 14 12 10 10 10 11 14 15 18 23 23 21 23 23 20 19 18 14 13 12 6 4 5 6 9 11 5 1 1 3 1 1 1 1 2 2 1 2 2 1 2 3 4 6 6 5 5 5 4 5 5 5 3 1 2 1 3 5 4 14 21 17 10 5 4 9 13 10 6 6 6 10 12 16
25 24 22 21 19 18 17 17 16 15 14 13 14 16 15 11 10 11 13 13 15 18 18 16 15 17 20 21 24 23 20 19 18 13 10 13 11 5 3 4 3 2 1 0 1 1 1 1 2 1 2 2 2 3 4 5 6 7 7 5 5 5 4 5 5 3 3 4 4 3 4 7 15 14 7 5 9 13 14 10 7 7 7 4 8 12 17
27 25 24 22 20 18 17 17 16 15 15 13 14 16 16 12 11 12 12 14 18 21 22 22 25 27 29 29 30 30 29 30 30 26 21 19 17 14 13 13 11 9 7 3 2 1 1 1 1 1 2 2 2 4 5 4 4 5 4 3 4 7 5 4 5 3 2 3 4 2 2 9 13 11 10 11 14 17 19 18 15 14 11 6 7 12 17
31 29 26 23 20 19 18 17 16 16 15 14 15 17 17 15 12 11 13 15 19 24 28 29 27 26 28 25 20 18 18 20 23 25 25 22 19 19 21 20 17 15 14 12 9 4 1 1 2 1 2 2 3 4 5 4 5 5 3 3 5 10 9 1 4 2 0 1 2 2 2 8 10 11 11 12 14 18 20 22 23 22 17 10 8 10 13
33 31 28 24 21 19 18 17 16 16 16 15 16 17 18 18 14 12 14 14 15 18 21 20 19 21 22 18 12 10 13 14 15 16 18 21 19 15 17 22 20 14 15 18 18 10 3 2 2 2 2 2 1 3 5 5 5 5 5 5 5 10 13 6 4 4 3 2 3 4 3 4 9 12 12 13 14 14 16 19 21 21 19 14 10 12 15
33 31 28 26 23 21 19 18 17 16 15 15 16 17 19 19 16 14 14 13 13 13 10 11 19 23 19 16 17 19 20 19 17 14 16 22 25 21 21 23 20 15 16 19 17 12 6 3 2 3 4 2 2 2 4 5 4 4 4 5 5 7 11 8 5 5 4 3 3 3 5 5 8 10 11 13 13 11 12 14 14 13 14 12 9 11 18
33 31 30 27 24 22 20 18 17 17 16 16 16 18 20 20 18 16 16 14 15 14 9 11 20 23 19 22 28 27 24 21 20 19 21 24 28 28 27 26 23 20 20 19 16 14 10 4 3 4 4 3 4 3 3 4 4 4 5 10 13 12 11 6 7 5 3 4 3 2 3 2 5 8 8 7 7 8 9 10 10 9 8 6 6 11 18
33 32 31 29 26 23 20 18 17 17 16 17 17 18 21 21 19 19 19 15 12 9 6 8 16 21 24 27 26 22 19 17 15 16 20 23 27 29 30 30 29 26 22 17 14 13 9 5 4 5 6 6 6 6 6 6 6 6 6 9 12 11 8 5 6 5 3 4 4 5 5 3 3 6 7 5 6 8 9 11 12 9 6 6 8 13 19
32 32 32 30 27 23 20 17 16 16 16 17 18 20 22 23 20 19 20 20 18 15 11 14 21 25 25 25 23 19 15 12 10 11 15 17 20 25 29 32 32 27 21 16 11 7 5 5 5 5 5 6 6 6 7 8 7 6 6 7 9 8 5 4 4 5 5 6 9 9 6 5 9 11 10 8 8 8 11 13 14 11 7 7 11 18 22
31 30 31 29 26 22 19 16 15 15 15 16 18 21 22 20 15 14 16 19 21 22 20 20 21 18 16 21 25 19 9 6 6 9 12 14 17 20 24 29 30 27 23 19 14 7 5 8 9 8 7 7 5 3 5 6 5 5 5 7 8 9 10 11 8 1 5 9 13 12 7 6 11 14 13 12 9 8 10 13 14 12 10 10 14 19 22
30 29 29 27 23 19 17 16 14 14 14 14 16 18 17 12 7 7 10 12 16 18 17 13 10 11 17 26 26 14 5 8 11 11 13 15 17 20 21 24 27 27 23 19 16 10 7 8 10 12 14 14 7 3 3 4 4 6 7 8 10 13 13 14 12 6 3 9 11 9 7 8 11 12 14 15 13 11 11 12 12 11 11 11 14 17 19
29 29 28 25 21 17 16 16 15 15 15 14 13 11 8 5 4 5 6 8 12 14 14 11 10 12 18 24 21 12 11 16 16 14 15 16 16 18 19 20 23 24 22 20 18 14 10 9 7 8 11 12 7 3 4 4 5 6 9 12 16 18 16 15 13 9 4 5 6 5 6 10 13 12 13 16 16 15 14 13 12 12 11 11 14 16 17
29 28 27 25 22 19 17 17 16 17 17 17 17 16 13 13 14 14 12 11 12 14 11 8 7 6 7 11 16 17 19 18 14 12 13 12 12 13 15 16 20 22 21 19 14 10 11 13 11 9 10 10 5 3 4 5 5 8 13 19 23 22 19 16 13 12 10 9 8 7 6 13 16 14 13 16 17 17 16 14 13 12 12 13 15 16 17
28 27 27 25 23 21 19 18 19 21 21 21 22 22 18 15 16 18 17 15 14 13 9 4 2 3 4 7 14 18 16 12 9 9 9 7 7 8 10 14 17 18 18 15 10 6 7 10 10 8 9 9 6 3 4 7 9 12 17 21 23 22 19 15 13 13 12 11 12 11 11 17 21 17 15 16 17 16 16 14 11 11 12 13 15 16 16
28 27 27 26 23 20 19 19 19 21 23 24 24 21 17 12 11 13 16 19 18 13 9 5 3 3 4 5 8 10 9 7 7 6 4 3 5 5 6 9 12 12 12 12 9 5 4 5 4 4 4 6 6 4 4 6 9 13 16 18 19 19 18 15 13 12 11 10 13 15 15 18 20 17 16 15 14 13 14 13 10 10 11 14 15 15 15
29 29 28 25 21 19 19 18 17 17 19 21 22 20 18 16 13 11 15 21 17 9 6 7 5 3 3 3 4 6 7 8 8 7 4 2 3 4 4 5 5 5 6 8 7 4 3 4 3 2 2 3 4 4 4 5 7 13 17 18 18 17 14 11 9 8 7 10 15 17 18 19 18 17 15 14 12 11 12 12 11 12 14 16 17 16 16
31 31 29 24 21 19 17 14 12 12 14 18 22 23 22 21 17 12 14 20 19 10 5 4 4 3 2 2 3 5 6 6 6 6 5 3 2 2 3 3 2 1 4 4 3 2 4 5 3 1 3 4 3 4 6 8 10 15 19 21 19 15 11 10 8 6 8 13 17 21 23 21 19 17 16 14 12 12 14 15 15 15 17 18 17 17 17
32 32 31 30 27 21 14 10 11 15 19 22 25 25 22 18 14 10 11 16 19 18 11 5 3 5 5 3 3 4 4 3 3 3 3 3 2 2 2 2 1 2 2 2 2 2 4 4 3 3 3 5 7 11 13 15 18 21 23 23 19 14 12 10 7 11 14 15 19 23 24 22 20 20 19 18 16 16 17 17 17 17 18 17 17 17 17
32 31 32 33 28 19 14 16 21 24 26 25 21 17 12 8 5 5 7 9 12 15 14 8 5 7 7 4 5 7 5 2 2 2 2 2 2 2 1 1 1 2 1 2 3 3 2 2 3 3 4 7 13 18 19 19 19 19 18 15 11 9 9 9 12 17 16 14 16 21 24 23 22 21 21 20 19 18 18 17 17 17 17 17 16 17 17
31 32 33 32 26 20 19 23 26 25 22 17 11 7 4 3 2 2 5 7 5 7 10 8 8 10 10 6 7 12 10 4 1 2 1 2 2 1 1 0 1 2 2 2 2 3 2 1 2 3 3 4 9 13 13 13 12 9 5 2 2 3 8 12 14 16 16 15 16 20 24 25 23 22 22 21 20 18 17 17 17 17 18 17 16 17 17
32 34 33 31 28 26 25 24 22 19 14 9 5 4 3 3 3 2 3 3 2 4 7 7 9 13 16 13 9 8 7 6 3 1 0 1 1 1 1 1 1 2 2 2 0 0 0 1 2 2 2 4 8 10 8 5 2 2 5 6 7 8 11 14 14 14 17 19 19 20 23 24 23 23 22 21 21 20 19 18 17 17 17 17 17 17 17
34 33 31 28 28 27 25 21 17 13 9 6 4 2 2 2 4 4 2 2 2 3 6 7 6 7 13 17 13 7 6 8 7 1 2 1 1 2 2 1 1 1 2 1 0 1 1 2 2 2 4 7 8 5 3 7 9 11 11 11 12 14 16 17 16 16 19 22 23 23 23 22 22 22 22 22 23 22 21 20 18 17 16 17 17 17 16
33 30 28 26 25 24 20 16 13 9 5 3 3 2 1 2 4 3 1 2 2 3 4 6 5 5 6 9 10 7 5 7 6 3 3 0 1 2 2 1 0 1 0 1 1 1 1 2 1 2 6 7 10 13 14 13 14 14 14 15 14 14 16 18 16 15 18 22 24 25 24 24 23 22 22 22 24 23 22 21 19 17 16 15 16 16 17
29 26 24 21 18 17 14 10 10 7 2 1 3 3 2 2 3 2 2 4 6 6 5 7 11 14 11 4 2 4 5 5 5 3 2 2 2 2 1 1 1 1 1 2 1 1 1 1 1 3 5 6 13 16 15 15 15 15 15 16 16 14 14 16 14 13 15 20 24 25 25 25 24 23 22 21 22 22 22 21 19 18 18 17 17 18 19
25 22 19 14 11 12 10 6 7 7 3 1 2 3 3 5 5 3 4 7 9 10 13 17 17 13 10 8 4 3 3 3 3 2 2 3 2 0 1 1 2 2 0 0 1 2 2 1 1 1 5 12 16 16 14 13 13 14 15 17 15 13 14 16 17 16 16 19 21 24 25 24 24 23 22 20 19 21 22 21 20 20 21 21 21 20 20
21 18 15 9 7 10 8 4 4 5 3 1 2 2 3 6 6 5 9 14 15 17 23 28 22 13 10 10 6 4 3 1 1 1 1 0 0 1 2 1 1 1 1 1 2 2 2 3 3 7 13 16 15 14 14 13 15 19 22 21 19 19 22 24 24 23 21 21 22 24 25 25 24 24 23 21 20 21 22 23 24 25 26 26 25 25 24
15 14 9 3 3 7 6 2 2 3 1 2 6 7 7 8 9 10 15 20 20 20 24 27 21 13 11 11 7 5 6 5 1 1 3 1 1 2 3 1 1 3 3 2 3 5 7 7 8 12 18 20 19 21 25 26 28 31 32 29 28 30 31 31 29 27 26 26 26 26 26 27 27 27 25 24 23 24 25 26 27 29 29 29 30 29 29
12 11 6 2 2 5 3 2 4 5 6 10 16 18 17 16 16 17 20 20 18 18 20 20 15 10 10 10 7 6 8 7 3 3 4 2 1 2 3 2 2 2 2 4 6 6 6 8 14 21 26 27 28 30 31 31 31 31 31 31 32 34 34 34 33 31 30 29 28 27 26 26 27 27 26 26 26 27 28 28 28 28 29 29 29 28 27
11 9 6 3 1 1 4 8 11 12 14 18 21 25 25 22 20 24 27 24 19 17 18 16 10 6 7 9 7 3 4 5 4 3 4 3 1 2 3 3 3 2 3 5 6 5 5 12 21 27 28 28 30 31 30 30 31 33 34 35 37 37 37 38 38 36 34 34 33 32 31 30 28 27 27 28 29 29 28 29 29 30 29 29 28 28 28
13 10 8 5 2 3 10 15 13 13 20 27 29 31 31 27 25 28 31 27 20 17 16 14 10 5 4 7 6 3 3 5 3 2 3 4 4 3 3 4 5 6 5 4 5 8 14 23 29 31 31 30 31 33 33 34 35 36 38 39 39 39 39 40 39 38 38 38 37 37 37 36 34 32 32 32 33 31 29 29 29 29 29 28 28 28 28
14 13 12 9 5 8 15 17 10 8 16 25 29 30 30 28 28 31 31 26 20 18 17 15 12 7 4 4 4 3 3 4 3 2 4 5 4 2 3 5 5 5 5 6 10 17 24 29 30 31 31 31 33 35 36 36 37 38 39 39 39 39 40 40 39 39 38 38 38 38 38 38 38 37 36 36 35 34 32 30 29 29 28 28 28 27 27
11 11 14 15 13 11 13 12 8 6 10 17 22 26 28 28 29 30 28 25 22 19 14 8 6 4 3 4 4 3 4 5 3 3 5 5 3 3 5 6 5 5 8 16 22 26 27 29 30 31 31 32 34 36 37 37 38 38 39 39 39 39 39 38 38 38 37 37 37 37 37 37 36 35 35 34 34 33 33 32 29 27 26 26 25 24 24
7 8 12 18 22 21 19 16 14 14 16 20 25 28 30 29 29 28 29 29 26 19 12 8 6 3 3 4 4 3 3 4 4 5 5 4 3 4 6 7 9 12 17 23 27 28 30 31 32 32 31 33 35 37 38 39 39 39 39 39 39 39 39 39 38 37 36 35 35 35 35 35 34 32 32 31 31 31 31 30 28 26 25 25 23 22 22
Wind_Direction
334 334 334 333 334 334 334 335 337 340 340 338 341 340 339 327 297 314 345 6 5 4 19 359 1 333 340 338 320 316 316 317 331 348 5 3 324 332 349 60 43 62 86 21 1 0 348 35 38 37 48 69 70 17 7 0 352 356 352 325 344 345 311 273 296 279 257 254 258 246 217 205 208 217 204 192 193 188 200 206 181 205 222 137 190 252 264
332 332 332 332 333 332 332 335 336 339 340 337 339 339 332 316 304 315 352 10 11 16 21 12 4 339 345 344 333 347 354 340 347 359 348 331 321 344 0 43 21 358 88 63 31 9 15 80 46 34 9 26 47 26 8 359 359 4 0 348 344 340 329 11 324 269 260 267 270 270 238 206 220 222 204 204 201 194 204 177 137 222 208 166 197 238 243
331 331 331 330 331 330 331 335 335 337 337 334 335 334 328 324 311 312 348 2 24 47 23 18 3 340 345 340 336 352 350 335 340 338 325 336 0 355 332 326 309 299 52 62 66 37 36 47 30 21 342 329 37 20 359 348 346 338 350 353 338 272 262 288 225 226 236 236 231 234 217 198 234 229 208 207 204 199 201 184 186 230 212 175 198 231 252
332 332 331 329 330 330 330 333 334 335 335 332 333 332 327 329 313 304 340 352 16 27 14 19 6 343 345 339 334 343 334 328 339 338 340 9 9 348 302 319 312 344 43 34 28 62 48 6 344 320 336 332 6 360 343 325 326 336 354 358 344 235 250 277 250 243 248 259 275 279 277 224 215 217 214 213 211 206 202 204 207 201 192 210 212 193 213
333 332 330 328 328 328 329 331 332 332 333 331 330 329 327 323 297 313 339 341 348 356 7 15 1 339 339 329 304 325 325 324 346 355 2 8 5 340 331 32 25 17 27 21 1 37 12 312 282 305 341 325 327 338 317 299 341 353 1 5 1 18 317 290 283 288 283 287 288 288 293 271 231 214 213 219 220 211 209 217 203 155 177 231 217 155 175
334 332 331 328 327 326 327 330 330 330 331 330 327 325 321 295 287 315 328 331 342 342 339 343 340 330 331 320 295 321 327 337 358 2 353 356 10 16 13 29 26 10 9 12 320 356 341 251 142 14 345 323 335 336 288 305 8 4 357 9 23 250 258 294 319 313 306 305 296 289 291 282 257 224 211 214 219 216 218 222 194 164 203 230 203 170 185
336 335 334 331 329 327 327 328 328 329 329 326 322 313 297 285 285 304 321 327 308 301 304 317 323 324 326 317 309 324 335 347 352 357 350 346 14 35 20 360 2 352 348 2 289 343 328 291 8 7 325 326 342 335 287 0 21 5 341 347 14 294 268 320 327 316 310 308 300 299 309 302 281 249 219 209 215 217 222 223 202 195 220 226 196 189 200
339 339 338 337 335 331 330 329 327 326 325 321 314 298 288 289 285 298 315 306 287 282 289 308 319 316 314 300 304 325 341 347 345 343 334 315 351 24 9 339 339 331 334 344 265 286 286 278 290 287 314 339 356 321 294 347 7 351 319 321 16 81 303 321 328 317 306 305 310 320 325 319 297 272 241 217 214 217 222 222 205 203 225 226 197 195 216
342 342 342 341 340 338 334 331 328 325 323 317 308 295 291 292 291 297 301 293 284 281 286 308 307 295 297 302 318 333 340 342 339 324 302 271 343 1 338 326 330 321 323 314 267 297 303 282 284 282 273 274 243 216 286 315 336 333 299 295 317 117 295 314 335 321 296 309 329 326 321 318 298 267 247 228 217 215 221 219 200 193 207 216 216 211 224
344 344 345 344 342 340 335 331 329 327 322 313 303 293 294 298 300 302 298 289 297 291 285 296 292 292 324 327 322 323 323 328 331 314 293 306 343 339 323 325 337 321 311 309 312 322 312 293 292 292 277 261 248 244 252 260 263 260 284 287 237 168 190 308 333 318 290 304 317 319 321 315 278 247 233 230 231 224 221 221 213 200 190 197 221 223 216
344 344 345 344 341 340 337 334 332 330 326 317 303 295 295 295 297 301 297 275 277 286 289 281 271 296 315 318 317 312 312 317 313 278 274 313 324 328 328 323 318 289 293 312 323 324 314 301 298 294 279 260 248 245 248 248 241 238 249 265 224 179 169 228 313 290 287 301 311 316 306 258 260 261 210 210 226 225 217 223 223 211 199 207 228 225 217
344 344 344 343 342 340 337 337 335 332 330 322 307 302 301 293 289 292 285 270 293 317 307 263 263 290 303 304 303 297 296 306 311 305 299 299 309 319 322 317 296 284 309 317 323 326 321 310 304 297 281 261 245 240 242 242 238 232 229 232 238 210 186 221 224 209 276 299 314 312 254 227 280 316 285 216 221 206 199 222 231 220 217 224 232 226 224
343 342 342 341 341 339 337 338 336 331 328 320 308 306 305 294 285 282 272 271 283 278 277 281 278 281 286 287 291 296 300 308 315 313 304 298 305 309 307 300 280 303 317 320 321 323 321 313 307 296 281 269 251 237 235 235 233 228 224 224 229 221 199 205 213 222 263 280 273 254 256 284 303 313 345 349 314 190 183 221 247 241 214 191 187 211 222
342 341 340 338 337 337 337 339 337 330 325 315 306 306 303 289 277 275 273 268 265 273 288 299 288 275 277 284 298 314 317 316 314 309 299 294 292 291 295 299 303 314 321 319 314 312 303 311 331 316 302 302 291 248 233 230 226 219 216 216 216 215 203 175 209 226 221 236 253 257 279 301 307 310 359 360 335 291 264 248 250 246 206 184 186 194 191
341 340 339 337 337 337 336 338 337 331 325 315 306 304 299 285 275 272 270 266 277 287 275 257 267 286 294 303 311 313 311 310 308 301 296 293 286 283 294 306 315 324 324 309 298 311 261 282 303 303 303 300 299 300 273 240 225 215 212 213 211 207 196 175 191 217 208 234 264 278 283 276 269 315 326 325 308 294 290 269 261 264 245 190 182 177 165
340 339 338 337 337 336 337 337 337 332 326 319 313 308 299 286 279 273 267 261 265 277 240 242 284 298 297 295 293 283 277 283 300 303 297 289 283 295 309 315 320 328 323 280 242 76 240 250 206 232 258 264 315 304 283 289 275 213 206 213 217 212 197 176 190 230 228 224 247 261 260 246 265 331 333 328 317 304 287 204 264 273 312 21 125 147 159
337 336 335 335 333 334 335 335 336 333 328 323 319 313 308 295 281 273 265 256 252 258 265 277 290 292 291 294 286 274 265 272 290 296 291 300 307 308 315 322 327 329 320 248 163 11 242 228 230 243 253 251 325 288 263 278 302 237 198 207 218 218 198 170 189 226 220 196 233 253 252 262 316 343 336 323 315 305 207 188 244 263 338 5 99 124 136
337 334 333 332 330 330 330 330 331 329 326 324 318 313 315 303 281 270 263 259 259 265 271 279 282 274 266 274 281 281 279 283 292 288 280 296 304 304 317 329 329 329 335 74 174 283 235 236 240 238 244 233 229 260 261 257 269 270 235 206 205 200 177 154 173 201 199 178 207 272 270 278 338 346 331 319 312 288 171 207 255 271 21 32 94 115 131
337 335 333 331 328 327 326 326 327 325 323 321 313 309 312 304 288 278 266 262 261 261 262 265 268 271 275 277 274 274 273 270 272 277 288 296 298 313 324 325 309 302 342 35 215 247 239 250 243 231 255 249 223 269 271 247 256 282 304 264 206 179 150 136 158 174 180 161 172 292 276 304 359 342 327 323 320 193 194 286 305 345 70 90 92 101 114
332 331 331 330 327 325 323 321 321 321 318 316 310 305 305 302 292 282 273 270 268 270 274 276 274 275 278 275 268 269 271 263 256 249 245 261 292 328 332 320 236 294 323 280 231 281 280 283 297 305 283 273 296 318 292 262 264 266 268 283 269 208 167 153 161 160 107 117 133 271 253 313 353 341 333 350 4 293 293 304 317 11 52 79 87 96 108
328 325 323 323 322 321 320 316 315 316 314 311 307 302 301 303 296 286 283 281 275 274 281 285 281 277 277 274 269 267 265 260 257 252 253 266 281 308 309 273 275 321 349 352 284 277 255 300 315 306 289 300 315 303 294 288 280 262 246 260 282 259 210 163 159 160 142 169 198 214 235 308 336 334 325 348 339 329 335 342 349 6 11 46 89 100 113
332 327 322 317 314 313 313 311 309 308 308 306 302 298 298 301 299 291 288 282 273 269 272 278 281 281 279 277 275 272 268 266 264 259 257 265 270 259 254 269 276 262 252 260 271 254 237 266 282 283 281 283 266 261 273 282 284 278 252 211 245 266 253 155 155 184 148 177 207 182 331 318 329 332 317 327 353 7 16 21 17 7 1 22 85 103 114
334 331 326 318 311 307 304 304 303 301 300 299 295 292 295 300 299 291 286 282 277 277 281 285 286 283 280 281 283 280 273 270 268 261 253 252 259 261 255 255 258 259 254 244 238 242 218 191 229 275 271 269 282 284 277 264 260 271 269 239 262 278 280 165 131 173 312 118 184 137 20 327 341 359 347 347 12 23 26 29 23 12 10 29 67 91 103
332 330 327 320 313 307 300 297 296 295 294 293 290 288 290 293 295 293 290 286 285 289 293 290 281 278 286 294 297 287 281 279 278 273 258 243 240 248 252 249 248 249 247 242 238 238 233 203 210 239 239 229 272 288 274 268 271 277 270 262 264 266 265 253 133 143 173 168 176 151 100 6 5 20 15 11 20 24 28 36 29 14 11 20 49 84 96
331 329 326 320 314 308 300 294 291 289 289 289 286 284 283 283 285 287 283 280 281 288 298 294 283 286 297 303 295 291 294 293 284 275 265 250 239 239 251 258 254 246 249 252 240 224 226 246 217 233 255 231 182 241 252 251 277 315 299 267 258 261 260 240 158 145 164 152 154 144 113 61 32 39 31 18 22 29 34 42 40 25 14 9 26 78 96
331 329 326 322 316 309 302 294 287 285 285 284 281 279 278 278 279 275 268 268 274 276 271 273 281 289 298 299 297 298 299 294 280 264 258 255 251 253 259 264 263 255 256 260 244 223 225 242 217 231 251 203 181 226 255 251 272 299 275 256 260 273 274 233 164 149 151 140 134 136 130 77 39 63 67 45 48 66 70 70 69 54 38 30 43 76 92
331 328 326 324 319 313 305 296 288 283 281 281 279 278 278 278 276 268 261 257 260 265 258 256 273 289 297 296 300 307 303 294 283 265 255 251 251 254 255 255 257 255 252 254 248 233 229 239 237 237 240 233 234 247 247 247 256 258 256 257 258 264 267 224 175 165 166 165 173 171 158 146 111 104 110 123 128 117 107 102 99 91 85 95 96 91 93
331 328 326 325 323 316 307 300 292 283 280 280 279 280 284 286 283 271 259 248 241 244 256 270 281 291 296 298 307 319 314 303 290 268 255 246 243 246 247 246 248 247 243 242 243 232 221 236 240 230 230 241 252 248 239 242 246 241 244 254 254 256 271 267 213 177 160 155 162 167 158 141 149 151 150 156 154 132 115 113 118 128 140 134 117 107 101
334 329 327 328 327 318 307 302 296 285 281 280 280 287 294 296 287 264 249 239 237 244 256 271 281 284 286 299 313 322 321 307 297 272 255 244 241 244 246 244 241 239 235 235 234 229 229 237 239 239 238 239 252 275 260 252 254 257 251 253 266 282 288 284 287 280 144 152 153 154 149 152 164 163 154 149 147 133 123 121 126 140 151 137 122 114 108
336 332 329 328 326 319 309 302 297 289 282 276 279 292 303 305 288 252 240 229 226 234 245 260 279 284 289 299 308 316 311 306 308 296 276 263 256 253 251 246 241 236 230 229 232 235 242 241 241 246 243 236 235 280 287 270 277 283 279 282 301 312 302 291 302 330 131 154 152 151 159 167 166 155 144 142 139 131 130 131 134 145 149 133 119 112 107
336 334 331 326 323 319 312 305 300 292 281 269 264 270 282 284 265 246 238 227 221 226 237 254 274 286 294 298 300 305 314 314 309 297 285 276 266 259 253 246 239 231 225 226 233 238 242 240 242 250 241 227 220 254 284 286 289 286 288 294 301 307 308 303 304 303 266 196 187 195 192 176 167 154 143 144 143 141 144 147 147 149 144 127 114 106 99
335 334 331 326 322 316 311 308 303 295 286 276 269 268 274 279 278 271 260 245 230 225 232 257 282 283 286 292 294 301 311 312 303 290 284 276 261 252 243 233 231 230 227 227 229 233 239 238 242 254 247 229 220 254 269 264 267 275 288 297 300 301 303 303 297 289 277 254 234 224 189 177 181 179 161 151 151 154 157 156 149 144 135 121 110 103 97
335 333 331 326 321 315 310 305 300 296 294 287 282 287 294 291 279 273 265 245 227 223 228 247 286 263 254 287 299 303 309 308 294 283 283 270 243 230 221 217 221 225 225 221 214 220 236 233 235 254 249 226 213 245 266 258 260 268 280 292 298 300 301 299 292 287 280 257 230 216 194 181 183 185 173 160 156 158 159 156 151 144 131 114 103 99 99
335 335 333 327 320 317 314 305 295 293 291 285 285 297 311 302 273 259 250 237 231 237 248 237 225 262 274 290 300 297 293 290 282 279 281 249 219 215 207 202 206 212 214 212 211 218 231 222 223 256 247 214 209 243 265 257 264 279 293 301 300 298 300 299 288 280 274 247 222 215 204 183 171 169 166 158 151 152 152 147 143 137 118 100 91 91 91
337 338 336 329 323 321 319 311 299 292 289 287 291 305 315 307 286 255 232 226 224 231 240 224 219 258 281 273 280 280 278 281 279 269 255 235 235 230 200 175 183 200 202 203 210 218 208 200 207 236 235 215 222 242 250 257 280 296 306 308 300 293 295 296 280 263 247 226 212 199 187 172 159 154 153 149 144 144 138 126 120 115 102 89 84 83 82
340 341 340 339 336 332 325 315 304 297 296 301 306 310 311 307 298 275 236 223 219 217 211 207 215 228 231 246 277 278 277 284 284 267 249 250 261 231 179 147 132 179 186 193 216 223 196 191 199 229 227 224 225 228 239 264 290 299 300 297 290 283 283 281 265 222 184 185 181 169 162 157 149 143 141 138 135 135 126 114 107 102 92 86 82 80 78
342 344 346 347 344 338 332 329 323 315 314 315 313 311 309 304 295 271 233 220 223 227 228 226 233 225 217 236 283 272 262 276 285 263 233 224 200 154 153 155 143 151 183 218 235 209 186 192 218 247 241 243 258 262 267 280 292 292 289 288 282 273 268 259 212 153 139 142 145 142 139 136 132 131 131 129 128 127 119 107 101 96 89 84 82 80 79
344 348 350 348 345 339 335 334 329 321 317 315 312 308 305 298 282 247 213 207 220 228 225 227 247 237 219 219 243 242 237 261 301 282 232 213 192 143 125 150 158 163 248 272 234 210 197 189 222 258 266 263 268 273 279 287 288 280 275 277 275 261 246 213 165 144 135 131 130 130 129 125 122 122 123 122 121 119 110 103 99 94 88 85 85 84 81
348 350 349 345 341 336 333 332 328 322 318 317 314 306 285 264 273 247 208 200 209 214 210 216 237 230 210 207 251 256 250 241 269 283 238 197 188 170 158 176 176 203 252 273 206 206 230 218 243 272 270 262 280 290 289 283 276 263 243 271 322 221 195 183 166 151 143 138 131 127 126 124 121 120 120 119 115 109 104 102 100 95 90 86 85 83 81
350 348 343 339 337 337 337 337 332 326 324 325 321 310 294 263 250 241 222 220 219 201 203 222 241 232 220 220 241 259 245 219 214 251 228 183 179 115 123 118 138 193 233 255 178 142 267 248 260 277 263 269 292 296 281 255 241 114 103 81 62 84 122 141 144 136 132 131 128 124 122 121 120 120 120 117 112 106 102 100 97 93 89 85 83 83 83
345 341 337 334 335 338 343 346 344 336 333 337 329 305 293 273 260 257 266 281 263 229 226 233 238 231 226 223 220 219 224 224 219 173 66 72 179 118 119 141 166 185 223 247 83 76 255 248 243 248 265 287 310 337 74 92 76 70 73 74 74 83 96 109 118 119 119 122 124 124 122 121 120 119 117 113 109 105 101 98 96 92 87 86 88 90 92
338 335 333 332 336 341 345 348 349 343 336 346 347 321 266 286 293 280 242 246 275 278 249 241 262 303 280 232 208 196 208 213 197 133 77 129 187 137 134 176 146 82 178 198 130 110 263 269 289 275 286 323 18 53 72 75 70 66 64 67 77 90 96 101 105 105 107 114 119 120 119 119 118 116 115 111 107 103 101 99 97 95 93 96 99 100 101
339 338 335 331 337 345 346 343 348 354 0 13 354 343 321 326 328 308 284 307 311 306 297 301 318 331 339 339 171 174 185 184 166 131 119 153 143 106 130 175 61 51 183 189 151 349 306 294 273 272 294 18 55 67 73 74 73 72 67 65 68 72 82 93 100 99 100 108 113 113 112 114 115 114 112 109 106 106 106 105 104 104 105 106 105 103 102
344 345 342 335 337 346 344 336 346 357 7 25 2 348 324 329 335 327 323 331 328 323 326 332 335 341 353 9 40 100 134 170 184 170 149 153 155 67 44 52 22 7 138 125 1 326 290 269 295 6 49 62 69 73 76 76 76 75 78 81 80 77 81 95 105 106 102 103 105 105 105 107 110 112 111 110 109 110 110 108 107 108 106 103 100 98 96
347 348 348 347 347 352 357 355 348 356 10 10 341 330 322 329 331 322 322 325 324 326 334 339 342 346 357 7 26 55 40 12 187 157 53 111 190 1 20 54 41 20 55 37 345 341 13 23 28 50 60 68 77 80 77 75 76 76 76 77 76 75 77 83 90 97 100 101 102 102 102 102 103 103 105 109 113 114 112 107 105 103 100 97 95 93 92
350 350 358 15 355 352 2 10 339 350 356 312 318 321 315 308 305 312 326 331 329 331 338 342 344 351 5 16 29 26 5 2 29 351 344 3 70 8 355 18 42 27 39 46 27 32 38 35 33 42 48 54 62 68 66 66 68 70 67 63 60 64 67 70 75 81 86 89 92 94 95 96 96 94 95 99 103 105 105 103 101 99 97 95 93 92 91
351 348 2 27 344 349 10 13 337 325 308 309 320 327 328 324 327 339 348 348 344 345 350 352 352 2 14 18 24 18 5 3 12 350 345 6 66 0 359 39 47 11 21 42 41 44 47 34 31 37 44 50 57 63 66 67 65 63 61 60 62 65 67 68 71 75 79 81 84 84 82 83 86 87 89 90 90 90 91 92 93 94 95 94 93 92 91
1 1 12 8 310 321 337 332 335 341 344 343 345 350 355 357 358 1 5 7 8 8 6 360 354 3 13 11 16 20 356 355 13 14 358 4 23 0 5 24 18 355 23 41 40 41 39 33 36 41 48 55 59 61 61 62 61 61 63 66 69 70 70 69 70 73 76 79 81 81 80 80 83 87 90 90 88 88 90 93 95 95 94 93 93 92 91
28 32 26 3 324 343 348 344 345 357 3 5 6 7 8 9 7 6 9 13 18 22 22 15 9 6 353 350 0 18 4 1 16 12 357 14 35 20 359 13 22 22 25 29 28 32 36 40 46 50 52 55 60 64 64 64 66 68 70 72 73 73 73 72 72 73 75 76 77 77 78 81 84 86 87 88 89 90 93 96 96 95 93 91 92 92 91
42 41 32 21 6 349 351 357 6 7 3 5 8 8 7 8 8 9 11 14 18 28 35 32 25 21 359 342 1 24 10 6 15 9 9 27 40 17 9 29 33 26 24 29 34 39 42 47 53 56 55 56 62 67 68 68 69 70 71 73 74 74 74 74 75 76 77 77 78 79 79 79 80 81 83 86 90 92 93 94 94 94 92 91 90 90 90
43 40 33 31 26 8 357 3 13 3 355 1 6 8 10 11 10 10 15 22 29 37 37 17 356 1 14 16 22 9 335 339 1 21 22 23 17 10 29 36 24 13 30 35 36 40 46 51 55 58 59 61 64 67 68 69 70 71 72 73 74 74 74 75 76 77 78 78 79 79 78 78 80 82 84 86 88 89 88 89 90 91 91 90 90 90 91
35 28 25 27 28 26 23 21 15 7 8 12 14 16 19 18 16 20 30 37 40 39 25 355 351 32 39 11 0 347 334 348 20 36 33 26 18 23 33 30 21 26 37 41 42 46 53 58 60 63 65 67 68 70 70 70 70 70 71 72 72 72 72 72 73 75 76 76 75 75 75 76 79 82 83 83 84 84 84 85 86 86 86 87 88 88 89